User: anonymous   Login
Location: Unspecified
(0.0000°N, 0.0000°E)
Time: 14:50:41
(UTC+00:00)
Language:

Mublcom - Orbit

View from above orbital plane
View from above orbital plane
View from above satellite
View from above satellite

Ground track
Ground track

The orbit data is extracted from the following two-line orbital elements,

1 25736U 99026B   17206.17993630 +.00000162 +00000-0 +53069-4 0  9999
2 25736 097.7629 282.2387 0003785 266.1124 093.9639 14.48947237958631
Epoch (UTC): 25 July 2017 04:19:06
Eccentricity: 0.0003785
inclination: 97.7629°
perigee height: 726 km
apogee height: 732 km
right ascension of ascending node: 282.2387°
argument of perigee: 266.1124°
revolutions per day: 14.48947237
mean anomaly at epoch: 93.9639°
orbit number at epoch: 95863

The dashed part of the orbit path shows where the satellite is in the earth's shadow,  

DLR